DLH2A EDDF-EDDS

Flight info

Callsign DLH2A
Flight time N/A
Altitude 17000
Route ANEKI2L/18 ANEKI Y163 NEKLO Y171 INKAM N850 KRH T128 BADSO BADSO2A
Aircraft A343/H-SDE2E3FGHIJ4J5M1RWXY/LB1D1

Departure

Time 2026-05-04 15:45
Airport Frankfurt Main Airport (EDDF)

Arrival

Time N/A
Airport Stuttgart Airport (EDDS)
Time Latitude Longitude Altitude Speed Heading
2026-05-04 15:22 50.04701 8.56159 369 ft 0 kts 341°
2026-05-04 15:30 50.04650 8.56189 367 ft 4 kts 334°
2026-05-04 15:30 50.04631 8.56285 368 ft 0 kts 251°
2026-05-04 15:31 50.04617 8.56229 363 ft 4 kts 250°
2026-05-04 15:31 50.04604 8.56171 363 ft 4 kts 249°
2026-05-04 15:32 50.04581 8.56076 366 ft 0 kts 250°
2026-05-04 15:34 50.04355 8.55923 368 ft 20 kts 162°
2026-05-04 15:34 50.04253 8.55963 365 ft 4 kts 215°
2026-05-04 15:34 50.04191 8.55733 363 ft 20 kts 250°
2026-05-04 15:35 50.04088 8.55308 364 ft 21 kts 251°
2026-05-04 15:35 50.04040 8.55104 363 ft 20 kts 251°
2026-05-04 15:35 50.03992 8.54899 360 ft 21 kts 250°
2026-05-04 15:36 50.03887 8.54458 361 ft 23 kts 249°
2026-05-04 15:36 50.03827 8.54296 358 ft 16 kts 234°
2026-05-04 15:36 50.03778 8.54142 357 ft 16 kts 250°
2026-05-04 15:37 50.03739 8.53967 353 ft 18 kts 251°
2026-05-04 15:37 50.03696 8.53775 352 ft 19 kts 250°
2026-05-04 15:37 50.03642 8.53575 352 ft 21 kts 246°
2026-05-04 15:37 50.03590 8.53358 352 ft 22 kts 250°
2026-05-04 15:38 50.03535 8.53134 349 ft 22 kts 250°
2026-05-04 15:38 50.03505 8.53005 351 ft 1 kts 250°
2026-05-04 15:38 50.03504 8.53001 351 ft 0 kts 250°
2026-05-04 15:40 50.03494 8.52962 344 ft 10 kts 248°
2026-05-04 15:40 50.03463 8.52846 337 ft 12 kts 246°
2026-05-04 15:41 50.03449 8.52791 337 ft 0 kts 248°
2026-05-04 15:41 50.03448 8.52786 336 ft 2 kts 249°
2026-05-04 15:41 50.03442 8.52764 336 ft 1 kts 249°
2026-05-04 15:42 50.03440 8.52758 337 ft 1 kts 249°
2026-05-04 15:42 50.03439 8.52753 337 ft 0 kts 248°
2026-05-04 15:42 50.03435 8.52738 336 ft 5 kts 248°
2026-05-04 15:42 50.03414 8.52659 335 ft 11 kts 241°
2026-05-04 15:43 50.03350 8.52587 335 ft 10 kts 184°
2026-05-04 15:43 50.03342 8.52588 336 ft 0 kts 177°
2026-05-04 15:44 50.03336 8.52590 336 ft 0 kts 171°
2026-05-04 15:44 50.03331 8.52591 337 ft 1 kts 175°
2026-05-04 15:44 50.03330 8.52591 337 ft 0 kts 174°
2026-05-04 15:44 50.03302 8.52594 336 ft 15 kts 177°
2026-05-04 15:45 50.02984 8.52599 337 ft 79 kts 181°
2026-05-04 15:45 50.02240 8.52606 339 ft 134 kts 180°
2026-05-04 15:45 50.01169 8.52627 591 ft 159 kts 183°
2026-05-04 15:45 50.00095 8.52676 1254 ft 160 kts 184°
2026-05-04 15:46 49.98938 8.52714 1824 ft 174 kts 183°
2026-05-04 15:46 49.97615 8.52747 2034 ft 207 kts 184°
2026-05-04 15:46 49.96107 8.52803 2555 ft 223 kts 182°
2026-05-04 15:46 49.94273 8.52907 3457 ft 230 kts 182°
2026-05-04 15:47 49.87996 8.53323 7274 ft 222 kts 180°
2026-05-04 15:47 49.81611 8.53757 10468 ft 234 kts 182°
2026-05-04 15:47 49.74783 8.53557 12802 ft 271 kts 188°
2026-05-04 15:47 49.66319 8.52389 13871 ft 344 kts 188°
2026-05-04 15:48 49.56224 8.51055 15704 ft 374 kts 188°
2026-05-04 15:48 49.45642 8.49687 16952 ft 393 kts 188°
2026-05-04 15:48 49.33946 8.48182 16967 ft 394 kts 188°
2026-05-04 15:49 49.31215 8.47827 16967 ft 394 kts 187°
2026-05-04 15:49 49.28470 8.48032 16964 ft 400 kts 171°
2026-05-04 15:49 49.25848 8.49482 16974 ft 403 kts 160°
2026-05-04 15:49 49.23244 8.51041 16972 ft 400 kts 167°
2026-05-04 15:50 49.20546 8.51990 16956 ft 397 kts 173°
2026-05-04 15:50 49.17864 8.52707 16967 ft 398 kts 173°
2026-05-04 15:50 49.15129 8.53416 16967 ft 398 kts 173°
2026-05-04 15:50 49.12395 8.54121 16969 ft 398 kts 173°
2026-05-04 15:51 49.09702 8.54816 16972 ft 398 kts 173°
2026-05-04 15:51 49.06967 8.55521 16970 ft 398 kts 173°
2026-05-04 15:51 49.04284 8.56212 16970 ft 398 kts 173°
2026-05-04 15:51 49.02421 8.56692 16974 ft 398 kts 173°
2026-05-04 15:52 48.99696 8.57392 16639 ft 396 kts 173°
2026-05-04 15:52 48.96997 8.58084 15694 ft 389 kts 173°
2026-05-04 15:52 48.94370 8.58759 14145 ft 376 kts 173°
2026-05-04 15:52 48.92669 8.59197 12793 ft 375 kts 173°
2026-05-04 15:53 48.89297 8.60069 10445 ft 364 kts 174°
2026-05-04 15:53 48.86854 8.60667 9080 ft 349 kts 174°
2026-05-04 15:53 48.84510 8.61157 7763 ft 330 kts 175°
2026-05-04 15:53 48.82294 8.61530 6686 ft 310 kts 176°
2026-05-04 15:54 48.80282 8.61788 6644 ft 264 kts 176°
2026-05-04 15:54 48.79366 8.61919 6773 ft 247 kts 176°